Terminal Aerodrome Forecast
Issued by NWS Charleston, WV

Current Version | Previous Version | Graphics & Text | Print | Product List | Glossary On
Versions: 1 2 3 4 5 6 7 8 9 10 11 12 13 14 15 16 17 18 19 20 21 22
000
FTUS41 KRLX 030923 AAA
TAFBKW
TAF AMD
KBKW 030923Z 0309/0406 00000KT P6SM FEW050
     FM031500 27006KT P6SM FEW050
     FM040200 24007KT P6SM BKN045
     FM040500 24007KT P6SM VCTS BKN035CB=

USA.gov is the U.S. government's official web portal to all federal, state and local government web resources and services.